poweredtemplate.com alexa rank chart, poweredtemplate.com alexa rank daily changes

poweredtemplate.com alexa rank chart, poweredtemplate.com alexa rank daily changes

poweredtemplate.com
Actual rank:
60 865

RANK HISTORY

Date Rank Diff
2016/12/07 60 865 +112
2016/12/06 60 753 -529
2016/12/05 61 282 +1 199
2016/12/04 60 083 -457
2016/12/02 60 540 -483
2016/12/01 61 023 -254
2016/11/30 61 277 -1 223
2016/11/29 62 500 -510
2016/11/28 63 010 +207
2016/11/27 62 803 -290
2016/11/26 63 093 -773
2016/11/25 63 866 -1 140
2016/11/24 65 006 +1 160
2016/11/23 63 846 -1 047
2016/11/19 64 893 +3 689
2016/11/18 61 204 -1 477
2016/11/17 62 681 -557
2016/11/16 63 238 -154
2016/11/15 63 392 -493
2016/11/14 63 885 -445
2016/11/13 64 330 +302
2016/11/12 64 028 +669
2016/11/11 63 359 -431
2016/11/10 63 790 -759
2016/11/09 64 549 -565
2016/11/08 65 114 +884
2016/11/07 64 230 -1 049
2016/11/06 65 279 +654
2016/11/05 64 625 -1 509
2016/11/04 66 134 -553
2016/11/03 66 687 -1 144
2016/11/02 67 831 -1 166
2016/11/01 68 997 +242
2016/10/31 68 755 -181
2016/10/30 68 936 -106
2016/10/29 69 042 -846
2016/10/28 69 888 +1 099
2016/10/27 68 789 -648
2016/10/26 69 437 -1 524
2016/10/25 70 961 +2 371
2016/10/24 68 590 -712
2016/10/23 69 302 -2 727
2016/10/22 72 029 -319
2016/10/21 72 348 +546
2016/10/20 71 802 +12
2016/10/19 71 790 -6 858
2016/10/18 78 648 +1 114
2016/10/17 77 534 +1 799
2016/10/16 75 735 -1 088
2016/10/15 76 823 -9 987
2016/10/14 86 810 -4 126
2016/10/13 90 936 -1 219
2016/10/12 92 155 +1 169
2016/10/11 90 986 -1 129
2016/10/10 92 115 -2 373
2016/10/09 94 488 +2 535
2016/10/08 91 953

WIDGET FOR YOUR SITE

DOMAINS WITH THE NEAREST RANK

Domain Rank
coa.gov.tw 60 860
robertdyas.co.uk 60 861
mosalingua.com 60 862
ksyun.com 60 863
disneyhotels.jp 60 864
poweredtemplate.com 60 865
soccerlife.ru 60 866
gseb.org 60 867
shoppbs.org 60 868
xchen.com.cn 60 869
oops.jp 60 870

DOMAINS WITH THE NEAREST RANK BY TLD .com

Domain Rank
yamaha-motor-india.com 60 851
thegnomonworkshop.com 60 856
6iee.com 60 859
mosalingua.com 60 862
ksyun.com 60 863
poweredtemplate.com 60 865
java-examples.com 60 871
newsmatomedia.com 60 873
dotster.com 60 874
tonahazana.com 60 875
seriesperutv.com 60 878